Location: Brompton
(51.4000°N, 0.5333°E)
Time: 15:01:12
(UTC+00:00)

USA 215 - Pass Details

Date: 30 September 2021
Orbit: 1102 x 1106 km, 123.0° (Epoch: 24 October)

Event Time Altitude Azimuth Distance (km) Brightness Sun altitude
Exits shadow 20:48:56 45° 198° (SSW) 1,468 3.7 -29.1°
Maximum altitude 20:49:53 48° 222° (SW) 1,414 3.8 -29.2°
Drops below altitude 10° 20:56:11 10° 296° (WNW) 2,966 6.4 -30.0°
Sets 20:58:47 0° 302° (WNW) 3,926 7.3 -30.3°
